This is the latest recevied weather packets stored in our database for station/object K6HN. If no packets are shown the sender has not sent any weather packets the latest 10 day(s).
| Time | Temp. | Humidity | Pressure | Rain* | Wind** | Luminosity | Snow |
|---|---|---|---|---|---|---|---|
| 1777970579 | 9.44° C | 49% | 1000.7 hPa | 1.27 mm | - | - | - |
| 1777969679 | 9.44° C | 49% | 1000.7 hPa | 0.51 mm | - | - | - |
| 1777968779 | 10° C | 49% | 1001 hPa | 0.51 mm | - | - | - |
| 1777967879 | 10° C | 49% | 1001 hPa | 0 mm | - | - | - |
| 1777966079 | 9.44° C | 49% | 1001 hPa | 0.51 mm | - | - | - |
| 1777965179 | 10° C | 49% | 1001 hPa | 0.25 mm | - | - | - |
| 1777964279 | 10° C | 49% | 1001 hPa | 0.25 mm | - | - | - |
| 1777963379 | 10° C | 49% | 1000.7 hPa | 0.51 mm | - | - | - |
| 1777962479 | 10° C | 49% | 1000.7 hPa | 0.25 mm | - | - | - |
| 1777961579 | 10° C | 49% | 1000.7 hPa | 0.25 mm | - | - | - |
| 1777960679 | 10.56° C | 49% | 1000.7 hPa | 0.25 mm | - | - | - |
| 1777959779 | 10.56° C | 49% | 1000.7 hPa | 0 mm | - | - | - |
| 1777958879 | 10.56° C | 49% | 1000.7 hPa | 0 mm | - | - | - |
| 1777957979 | 11.11° C | 48% | 1001 hPa | 0 mm | - | - | - |
| 1777957079 | 11.11° C | 49% | 1001.4 hPa | 0 mm | - | - | - |
| 1777956179 | 11.11° C | 49% | 1001.4 hPa | 0 mm | - | - | - |
| 1777955279 | 11.11° C | 49% | 1001.4 hPa | 0 mm | - | - | - |
| 1777954379 | 11.67° C | 49% | 1001 hPa | 0 mm | - | - | - |
| 1777953479 | 11.67° C | 50% | 1000.3 hPa | 0 mm | - | - | - |
| 1777952579 | 11.67° C | 51% | 1000.3 hPa | 0 mm | - | - | - |
| 1777951679 | 11.67° C | 51% | 1000.3 hPa | 0 mm | - | - | - |
| 1777950779 | 11.67° C | 51% | 1000 hPa | 0 mm | - | - | - |
| 1777949879 | 12.22° C | 51% | 1000.3 hPa | 0 mm | - | - | - |
| 1777948979 | 12.78° C | 51% | 1000.3 hPa | 0 mm | - | - | - |
| 1777948079 | 12.78° C | 51% | 1000 hPa | 0 mm | - | - | - |
* Rain latest hour (hover to see other rain measurements)
** Current wind speed in m/s (hover to see current wind gust speed)